[Date Prev][Date Next][Thread Prev][Thread Next][Date Index][Thread Index]

[jamsat-news:1660] jas2info #262



========================   最新情報   ==============================

        Last updated 9Feb 2002  17:10(JST)   #262 

====================================================================
   
1)アマチュア通信衛星情報、FOシリーズの軌道要素、テレメトリ、QSOの
   状況等をまとめてみました.
   
 FO−29の2002年2月8日(金)の18:08(JST)のパスでは
JARLのホームページのとうりアナログ運用でした。 今日までの観測した
テレメトリーと最終の分析結果を報告しておきます。

AS27059C   08Feb2002
18:10-18:23(JST)
AOS   MEL  LOS  Elev
 30    97  163  23.3
Freq. 435.802-.785MHz

HI HI AE C7 88 55 00 D4 00 02 09 00 2F 9B 58 61 94 93 B0 8C 8B 82 80 88 81 
HI HI AE C7 88 55 00 D4 00 02 09 00 35 9E 57 61 95 93 B0 77 8B 82 80 89 81 
HI HI AE C7 88 55 00 D4 00 00 09 00 3B A2 5B 61 95 93 B0 6F 8B 82 80 88 81 
HI HI AE C7 88 55 00 D4 00 00 09 00 42 A5 5D 61 94 93 B0 83 8B 82 80 89 81 
HI HI AE C7 88 55 00 D4 00 00 09 00 48 A7 5E 61 95 93 B0 68 8B 82 80 89 81 
HI HI AE C7 88 55 00 D4 00 00 09 00 50 A9 65 61 95 93 B0 68 8B 82 80 89 81 
HI HI AE C7 88 55 00 D4 00 02 09 00 57 A9 68 61 94 93 B0 70 8C 82 80 89 81 
HI HI AE C7 88 55 00 D4 00 00 09 00 5F A9 6A 61 95 93 B0 72 8C 82 80 89 81 
HI HI AE C7 88 55 00 D4 00 00 09 00 66 A8 6D 61 95 93 B0 73 8C 82 80 89 81 
HI HI AE C7 88 55 00 D4 00 00 09 00 6D A5 6D 61 95 93 B0 60 8C 82 80 89 81 
HI HI AE C7 88 55 00 D4 00 00 09 00 74 A2 71 61 95 93 B0 5A 8C 82 80 89 81 
HI HI AE C7 88 55 00 D4 00 00 09 00 7A 9E 72 61 95 93 B0 62 8C 82 80 89 81
HI HI AE C7 88 55 00 D4 00 00 09 00 80 99 75 61 95 93 B0 7B 8C 82 7F 89 81 
HI HI AE C7 88 55 00 D4 00 00 09 00 84 93 77 61 95 93 B0 6E 8C 83 7F 88 81 
HI HI AE C7 88 55 00 D4 00 00 09 00 90 98 77 61 94 93 B0 73 8C 83 7F 89 81 
HI HI AE C7 88 55 00 D4 00 00 09 00 8B 86 78 61 94 93 B0 5F 8C 83 7F 88 81 
 
AS27047C   07Feb2002
20:50-21:00(JST)
AOS   MEL  LOS  Elev
344   296  249   9.9
Freq. 435.800-.788MHz 
                                                            81 85 8D 87 82 
HI HI AE C7 88 55 00 D4 A9 34 09 3C 8A 88 50 62 95 93 AF 7E 81 85 8D 87 82 
HI HI AE C7 88 55 00 D4 A9 34 09 3C 8A 8A 4F 62 95 93 AE 6B 81 85 8D 87 82 
HI HI AE C7 88 55 00 D4 A9 34 09 3C 89 8B 51 61 95 93 AF 70 81 85 8D 87 82 
HI HI AE C7 88 55 00 D4 A9 34 09 3C 89 8A 4F 62 94 93 AD 7E 81 85 8D 87 82 
HI HI AE C7 88 55 00 D4 A9 34 09 3C 88 89 50 61 94 93 B0 76 81 85 8D 87 82 
HI HI AE C7 88 55 00 D4 A9 34 09 3C 88 86 53 61 95 93 B0 67 81 85 8D 87 82 
HI HI AE C7 88 55 00 D4 A9 34 09 3C 86 83 55 61 95 93 B0 6B 81 85 8D 87 82 
HI HI AE C7 88 55 00 D4 A9 34 09 3C 85 7F 55 61 95 93 AF 7D 81 85 8D 87 82 
HI HI AE C7 88 55 00 D4 A9 34 09 3C 83 7A 58 61 95 93 B0 6F 82 86 8D 87 82 
HI HI AE C7 88 55 00 D4 A9 34 09 5C 81 75 5A 61 95 94 B0 6A 82 86 8D 87 82 
HI HI AE C7 88 55 00 D4 A9 34 09 3C 7A 72 59 61 95 93 B0 60 82 86 8D 86 82  
HI HI AE C7 88 55 00 D4 A9 34 09 3C 7C 69 4A 61 95 94 B0 56 72 86 8C 86 82  
HI HI AE C7 88 55 00 D4 A9 34 09 3C 69 63 59 61 95 94 B0 55 82 86 8C 86 82 
 
AS2033C  06Feb2002
20:01-20:14(JST)
AOS   MEL  LOS  Elev
360   289  252  31.1
Freq. 435.803-785MHz

HI HI AE C7 88 55 00 D5 9C CE 09 20 89 B7 76 62 97 96 B9 78 8E 8A 8A 8A 88 
HI HI AE C7 88 55 00 D5 9C CE 09 20 8C B2 75 62 97 97 B0 6E 8E 8A 8A 8A 88 
HI HI AE C7 88 55 00 D4 9C CE 09 20 8F AD 75 63 97 97 B0 69 8E 8A 8A 8A 88 
HI HI AE C7 88 55 00 D4 9C CE 09 20 2A A7 75 63  ^ 96 B0 5C 8E 8B 8A 89 88 
HI HI AE C7 88 55 00 D4 9C CE 09 20 94 A1 75 63 97 96 B0 84 8E 8B 8A 89 88 
HI HI AE C7 88 55 00 D4 9C CE 09 20 96 9B 75 63 97 97 B0 68 8D 8B 8A 89 88 
HI HI AE C7 88 55 00 D4 9C CE 09 20 98 95 75 63 97 96 B0 7D 8D 8B 8A 89 88 
HI HI AE C7 88 55 00 D4 9C CE 09 20 99 8E 74 63 97 96 B0 6D 8D 8B 8B 89 88 
HI HI AE C7 88 55 00 D4 9C CE 09 20 9A 87 74 63 97 97 B0 6A 8D 8B 8B 89 88 
HI HI AE C7 88 55 00 D4 9C CE 09 20 9B 81 74 63 97 97 B0 4B 8D 8B 8B 89 88 
HI HI AE C7 88 55 00 D4 9C CE 09 20 9C 7A 74 63 97 96 B0 8A 8D 8B 8B 89 88 
HI HI AE C7 88 55 00 D4 9C CE 09 20 9C 73 75 62 97 96 B0 B2 7D 8B 8B 88 88
HI HI AE C7 88 55 00 D4 9C CE 09 20 9C 6C 75 63 96 96 B0 57 8D 8B 8B 88 88 
HI HI AE C7 88 55 00 D4 9C CE 09 20 9B 65 75 62 97 96 B0 78 8C 8B 8B 88 88 
HI HI AE C7 88 55 00 D4 9C CE 09 20 9A 5F 75 63 96 96 B0 65 8C 8B 8B 88 88 
HI HI AE C7 88 55 00 D4 9C CE 09 20 99 58 75 62 97 96 B0 67 8C 8B 8B 88 88 
HI HI AE C7 88 55 00 D4 9C CE 09 20 97 52 76 63 96 96 B0 5E 8C 8B 8B 88 88 

AS27018C   05Feb2002
17:27-17:35(JST)
AOS   MEL  LOS  Elev
 52    91  130   6.0
Freq. 435.799-788MHz
HI HI AE C7 88 55 00 D4 00 00 09 00 2C 83 57 60 91 91 B0 7F 83 85 8C 89 83 
HI HI AE C7 88 55 00 D4 00 00 09 00 2F 85 59 60 92 91 B0 52 84 85 8C 89 83 
HI HI AE C7 88 55 00 D4 00 00 09 00 31 86 5C 60 92 92 B0 88 84 85 8C 89 83 
HI HI AE C7 88 55 00 D4 00 00 09 00 33 86 5D 61 93 93 B0 67 84 84 8C 89 83 
HI HI AE C7 88 55 00 D4 00 00 09 00 36 84 63 61 94 93 B0 80 84 84 8C 89 83 
HI HI AE C7 88 55 00 D4 00 00 09 00 38 82 63 61 94 94 B0 7F 84 84 8B 89 83 
HI HI AE C7 88 55 00 D4 00 00 09 00 3A 7E 66 61 95 94 B0 74 84 84 8B 89 83 
HI HI AE C7 88 55 00 D4 00 00 09 00 3C 79 69 61 95 94 B0 71 85 84 8B 89 83 
HI HI AE C7 88 55 00 D4 00 00 09 00 3E 73 6C 62 95 95 B0 73 85 84 8B 89 83 
HI HI AE C7 88 55 00 D4 00 00 09 00 40 6D 6C 62 95 95 B0 71 85 84 8B 89 83 
HI HI AE C7 88 55 00 D4 00 00 09 0B 

------------------------ FO-29の軌道要素 ------------------------------        
 
  ■ 軌道要素1:「jamsat−keps:1072」より         
          SB KEPS @ AMSAT  $ORB02031.N
          2Line Orbital Elements 02031.AMSAT

HR AMSAT ORBITAL ELEMENTS FOR AMATEUR SATELLITES IN NASA FORMAT
FROM WA5QGD FORT WORTH,TX January 31, 2002
SEND SUBSCRIBE/UNSUBSCRIBE TO majordomo@amsat.org ONLY
BID: ORB02031.N

 DECODE 2-LINE ELSETS WITH THE FOLLOWING KEY:
 1 AAAAAU 00  0  0 BBBBB.BBBBBBBB  .CCCCCCCC  00000-0  00000-0 0  DDDZ
 2 AAAAA EEE.EEEE FFF.FFFF GGGGGGG HHH.HHHH III.IIII JJ.JJJJJJJJKKKKKZ
 KEY: A-CATALOGNUM B-EPOCHTIME C-DECAY D-ELSETNUM E-INCLINATION F-RAAN
 G-ECCENTRICITY H-ARGPERIGEE I-MNANOM J-MNMOTION K-ORBITNUM Z-CHECKSUM

FO-29
1 24278U 96046B   02031.07317586  .00000131  00000-0  16680-3 0  4748
2 24278  98.5143 230.0356 0351302 130.9096 232.3035 13.52820203269456

 ■ 軌道要素2:「jamsat−keps:1073」より
        SB KEPS @ AMSAT  $ORB02031.O
        Orbital Elements  02031.OSCAR

HR AMSAT ORBITAL ELEMENTS FOR OSCAR SATELLITES
FROM WA5QGD FORT WORTH,TX January 31, 2002
SEND SUBSCRIBE/UNSUBSCRIBE TO majordomo@amsat.org ONLY
BID: ORB02031.O
TO ALL RADIO AMATEURS BT

Satellite: FO-29
Catalog number: 24278
Epoch time:      02031.07317586
Element set:     474
Inclination:       98.5143 deg
RA of node:       230.0356 deg
Eccentricity:    0.0351302
Arg of perigee:   130.9096 deg
Mean anomaly:     232.3035 deg
Mean motion:   13.52820203 rev/day
Decay rate:       1.31e-06 rev/day^2
Epoch rev:           26945
Checksum:              268

-------------------  FO-29(JAS-2)のテレメトリに関する情報  ---------------------- 
 
2)上記2002年2月8日(金)のテレメトリの最終行を分析しておきます.

AS27059C   08Feb2002
18:10-18:23(JST)
AOS   MEL  LOS  Elev
 30    97  163  23.3
Freq. 435.802-.785MHz

HI HI AE C7 88 55 00 D4 00 00 09 00 8B 86 78 61 94 93 B0 5F 8C 83 7F 88 81 

3C	磁気センサーZ軸	=	68137.2	[nT]
3D	磁気センサX軸	=	65686.3	[nT]
4A	太陽電池発生電流	=	1176.5	[mA]
4B	B充放電電流	=	-98.8	[mA]
4C	B端子電圧	=	15.9	[V]
4D	B中間端子電圧	=	7.1	[V]
5A	バス電圧	=	17.3	[V]
5B	JTA送信電力	=	519.4	[mW]
5C 	構体温度1	=	27.5	[℃]
5D	構体温度2	=	31.0	[℃]
6A	構体温度3	=	32.6	[℃]
6B	構体温度4	=	29.1	[℃]
6C	Bセル温度	=	31.8	[℃]

 ========================== FO-29(ふじ3号)のテレメトリ分析、QSO情報等 =====================
   
 3)[jamsat-bb:

 ===============================================================================
 
 4)JARL のホームページに運用予定が記載されていましたのでご紹介します.
       ( http://www.jarl.or.jp/Japanese/3_Fuji/new/uy.htm )
       
        ふじ3号(JAS−2)の運用          

       *** 運用予定について ***

  平成13年      平成14年
 12月4日(火) 〜 3月31日(日)アナログ系運用

  *なお,運用予定は都合により,変更することがありますので,
   あらかじめご了承願います。

 照会先 : lab@jarl.or.jp

 最新の情報はテレホンサービス(03−3942−1000)をお聞きください。  
 以後の運用につきましては平成14年4月上旬にお知らせいたします 
     
-----------------------    FO−20(JAS-1b)道要素   -------------------------
  
  ■ 軌道要素1 :出典はFO-29「ふじ3号」に同じ.
  
FO-20
1 20480U 90013C   02030.97759262  .00000069  00000-0  22089-3 0 03891
2 20480 099.0317 061.5122 0540342 153.1797 209.8359 12.83309046561311
 
  ■ 軌道要素2 :出典はFO−29「ふじ3号」に同じ.
               
Satellite: FO-20
Catalog number: 20480
Epoch time:      02030.97759262
Element set:    0389
Inclination:      099.0317 deg
RA of node:       061.5122 deg
Eccentricity:    0.0540342
Arg of perigee:   153.1797 deg
Mean anomaly:     209.8359 deg
Mean motion:   12.83309046 rev/day
Decay rate:        6.9e-07 rev/day^2
Epoch rev:           56131
Checksum:              299

 -------------------------------------------------------------------------------- 
         ■ ふじ2号/FO−20/JAS-1b ■      
            
          「ふじ2号」 現況                                                                                  
             
   JAS-1b(ふじ2号)のCWテレメトリ信号に,1997年10月12日12時(JST)の
 日本上空通過時,3桁の数字が繰り返されるはずが3個の長音の繰り返しとなっているという
 異常が発見されました。この不具合は次の通過時からは回復していましたが13日15時20分の
 通過時に再び観測されました。現在はA0の送信が続いています。衛星のアナログ系中継モード
 動作は異常が無く,正常時のテレメトリ内容からは衛星の動作に異常は認められません。従って,
 直ちに衛星のミッションに影響することは無いと予想されますので,当面はアナログ系中継
 モードを継続します。衛星は既に打ち上げてから7年8ヶ月を経ておりますので,今後は監視を
 強化する予定です。アマチュア各位のレポートをお待ちします。
 -------------------------------------------------------------------------------- 
  1997年10月14日 00時35分 確認のテレメトリ音 151 KB (A0) 
  1997年10月14日 11時10分 確認のテレメトリ音 216 KB (異常キーイング) 

  以上 JARLのホ−ムページの http://www.jarl.or.jp/Japanese/3_Fuji/new/fuji.htm

===================== FO-20 ふじ2号 のテレメトリ観測結果 ====================

  12月27日(木)17:43(JST)の観測結果ではテレメトリは、以前観測した単一周波数の
正弦波がドップラー効果で周波数がずれていくのみの状態でした。
                                         
   =============   JAS-2 (ふじ3号)と現在までの情報   ===========
  
  A.電話によるふじ3号の運用情報
      社団法人日本アマチュア連盟によるサービス
           TEL .   03− 3942 − 1000
  B.アマチュア無線FAXサービス
      JARLによるふじ3号の軌道情報(オービットカレンダー)
         FAX No.  03− 3233 −0055
  C.WWWブラウザで情報を簡単に見れる人のためにJAS−2
     ふじ3号の衛星としての運用されるまでの名前)の概要、打ち上げ
     までの状況、運用中における状況を説明したホームページを紹介し
     ておきます.

     社団法人日本アマチュア無線連盟(JARL)のホームページ

          http://www.jarl.or.jp/Japanese/3_Fuji/jasmenu.htm
 
     宇宙開発事業団(NASDA)ホームページ 
          http://www.nasda.go.jp/
         打上げ衛星 :地球観測プラットフォーム技術衛星(ADEOS) 
                       アマチュア衛星3号(JAS-2)
          http://spaceboy.nasda.go.jp/note/eisei/j/Eis15h_j.html#Eis15h_01_j
     http://spaceboy.nasda.go.jp/note/eisei/j/Eis15i_j.html        

  D.JAMSATによる軌道情報の活用
        JAMSATのホームページまたはjamsat−kepsの軌道要素より
      衛星の軌道情報を得る.
     JAMSATホームページ
               URL    http://www.jamsat.or.jp
       上記ホームページでは各地で行われるアマチュア通信衛星に関する
      ミューティングのお知らせや世界のアマチュア衛星に関する情報が
      満載されています.

 ========================================================================  
     JAMSATのメンバーのご協力によりJH6MME(高山 秀造)が
    執筆・編集を担当しております.ご指摘の意見、疑問やこのようにしたら
    というアイデアがありましたら小さなことでもかまいませんので気軽に下
    記アドレスまでご連絡ください.jamsat−newsからjas2
    infoへの転載をJH4PHW局坂井さんに担当して頂いております.  
                  E-mail : jh6mme@jamsat.or.jp : jh4phw@jamsat.or.jp
 ===============================   END  ===============================